Location: Unspecified
(54.1780°N, 0.0000°E)
Time: 20:21:16
(UTC+00:00)

Vanguard 2 - Pass Details

Date: 24 June 2019
Orbit: 553 x 2938 km, 32.9° (Epoch: 16 July)

Event Time Altitude Azimuth Distance (km) Brightness Sun altitude
Rises 10:35:07 0° 235° (SW) 3,644 11.0 55.2°
Reaches altitude 10° 10:38:46 10° 212° (SSW) 3,070 10.9 55.5°
Maximum altitude 10:42:48 15° 180° (S) 3,114 11.3 55.8°
Drops below altitude 10° 10:47:49 10° 150° (SSE) 4,002 11.9 56.2°
Sets 10:53:54 0° 132° (SE) 5,561 12.4 56.7°
